STARLINK-32611

Last updated on Thu Nov 21 2024 00:02:07 GMT+0000 (Coordinated Universal Time)

1 61976U 24210T 24325.66668981 -.00940212 27327-3 -25616-2 0 9990 2 61976 43.0026 353.4748 0001748 284.3557 82.0125 15.93206010 2191
UTC large
Height (km)
Speed (km/s)
/
Latitude / Longitude
Inclination (degrees)
Orbital Period (minutes)
Azimuth
Elevation
Range (km)
Doppler Factor

Next 0 passes for location: London (51.5072 / 0.1276)

Sorry there are no passes over London.